Location: Altleiningen
(49.5078°N, 8.0741°E)
Time: 11:32:26
(UTC+00:00)

Cosmos 2184 Rocket - Pass Details

Date: 03 March 2021
Orbit: 960 x 1001 km, 82.9° (Epoch: 12 April)

Event Time Altitude Azimuth Distance (km) Brightness Sun altitude
Rises 17:54:44 0° 184° (S) 3,630 7.1 -7.4°
Reaches altitude 10° 17:57:12 10° 183° (S) 2,690 6.4 -7.8°
Maximum altitude 18:03:22 82° 97° (E) 981 4.0 -8.8°
Drops below altitude 10° 18:09:36 10° 11° (N) 2,727 6.3 -9.8°
Sets 18:12:08 0° 11° (N) 3,684 6.9 -10.2°
